Location: Kervinic
(48.4279°N, 4.7373°W)
Time: 13:00:31
(UTC+00:00)

CARTOSAT-1 - Pass Details

Date: 09 April 2020
Orbit: 616 x 619 km, 97.8° (Epoch: 28 May)

Event Time Altitude Azimuth Distance (km) Brightness Sun altitude
Exits shadow 22:16:41 51° 288° (WNW) 787 4.2 -27.4°
Drops below altitude 10° 22:20:26 10° 338° (NNW) 1,997 7.1 -27.7°
Sets 22:22:41 0° 343° (NNW) 2,908 8.1 -27.9°
